Location: Unspecified
(0.0000°N, 0.0000°E)
Time: 13:24:22
(UTC+00:00)

OBJECT PG - Visible Passes

Search period start: 19 May 2019 00:00
Search period end: 29 May 2019 00:00
Orbit: 383 x 389 km, 51.6° (Epoch: 18 May)

Date Brightness Start Highest point End Pass type
(mag) Time Alt. Az. Time Alt. Az. Time Alt. Az.
19 May ? 04:39:45 10° N 04:42:03 18° NE 04:44:21 10° E visible
20 May ? 05:16:57 10° NW 05:19:55 38° SW 05:22:54 10° SSE visible
21 May ? 04:21:52 50° NE 04:21:56 50° NE 04:25:01 10° SE visible
